Skip Page Navigation
NASA JPL Caltech
NASA Logo - Jet Propulsion Laboratory + View the NASA Portal
+ Near-Earth Object (NEO) Program
Search JPL
JPL Home Earth Solar System Stars & Galaxies Technology
JPL Solar System Dynamics
BODIES ORBITS EPHEMERIDES TOOLS PHYSICAL DATA DISCOVERY FAQ SITE MAP
JPL Small-Body Database Browser
Search: [ help ]  
10660 Felixhormuth (4348 T-1)
Classification: Main-belt Asteroid          SPK-ID: 2010660
Ephemeris | Orbit Diagram | Orbital Elements | Physical Parameters | Discovery Circumstances | Close-Approach Data ]

[ show orbit diagram ]
Orbital Elements at Epoch 2457000.5 (2014-Dec-09.0) TDB
Reference: JPL 11 (heliocentric ecliptic J2000)
 Element Value Uncertainty (1-sigma)   Units 
e .145028866347882 7.9672e-08  
a 3.155619943909643 4.2979e-08 AU
q 2.69796396081966 2.6471e-07 AU
i 6.86737268491547 9.3606e-06 deg
node 40.60525028992151 5.791e-05 deg
peri 123.0878669501722 6.4472e-05 deg
M 299.3472555499014 3.1811e-05 deg
tp 2457345.463718989100
(2015-Nov-18.96371899)
0.00018458 JED
period 2047.507329833184
5.61
4.183e-05
1.145e-07
d
yr
n .1758235463944982 3.592e-09 deg/d
Q 3.613275926999625 4.9212e-08 AU
  Orbit Determination Parameters
   # obs. used (total)      579  
   data-arc span      16011 days (43.84 yr)  
   first obs. used      1971-03-26  
   last obs. used      2015-01-25  
   planetary ephem.      DE431  
   SB-pert. ephem.      SB431-BIG16  
   condition code      0  
   fit RMS      .57589  
   data source      ORB  
   producer      Otto Matic  
   solution date      2015-Mar-09 14:23:27  

Additional Information
 Earth MOID = 1.71382 AU 
 T_jup = 3.179 
[ show covariance matrix ]

Ephemeris | Orbit Diagram | Orbital Elements | Physical Parameters | Discovery Circumstances | Close-Approach Data ]

Physical Parameter Table
Parameter Symbol Value Units Sigma Reference Notes
absolute magnitude H 13.9 mag n/a MPO267750  

10660 Felixhormuth           Discovered 1971 Mar. 26 by C. J. van Houten and I. van Houten-Groeneveld on Palomar Schmidt plates taken by T. Gehrels.
Felix Hormuth (b. 1975) is a developer of auxiliary instruments at Calar Alto Observatory. An observer of minor planets for many years, he is also a supporter of the Faulkes Telescope Educational Project. The name was suggested by L. Kurtze and L. D. Schmadel.
NOTE: some special characters may not display properly (any characters within {} are an attempt to place the proper accent above a character)
Reference: 20070402/MPCPages.arcLast Updated: 2007-07-05

[ show close-approach data ]
Ephemeris | Orbit Diagram | Orbital Elements | Physical Parameters | Discovery Circumstances | Close-Approach Data ]
ABOUT SSD CREDITS/AWARDS PRIVACY/COPYRIGHT GLOSSARY LINKS
FirstGov 2015-Aug-29 12:39 UT
(server date/time)  
NASA Home Page
Site Manager:   Ryan S. Park
Webmaster  Alan B. Chamberlin